KN4CI-1 Weather Reports


Display with metric or nautical units.
time (UTC)temp
F
wind
direction
speed
MPH
gust
MPH
rain 1hr
in
rain 24hr
in
rain mn
in
humidity
%
barometer
mb
20260901171238 93 132 0.0 0.0 0.00 0.00 0.00 11 1020.6
20260901170236 93 164 0.0 0.0 0.00 0.00 0.00 11 1020.6
20260901165736 93 164 0.0 0.0 0.00 0.00 0.00 11 1020.6
20260901165231 92 157 0.0 0.0 0.00 0.00 0.00 11 1020.6
20260901164732 92 110 0.0 0.0 0.00 0.00 0.00 12 1020.6
20260901163726 91 323 0.0 0.0 0.00 0.00 0.00 12 1020.6
20260901163226 90 323 0.0 0.0 0.00 0.00 0.00 12 1020.6
20260901162726 90 323 0.0 0.0 0.00 0.00 0.00 12 1020.6
20260901161718 90 206 0.0 0.0 0.00 0.00 0.00 12 1020.6
20260901160714 89 155 0.0 0.0 0.00 0.00 0.00 12 1020.6
20260901160214 89 330 0.0 0.0 0.00 0.00 0.00 12 1020.6
20260901155213 88 330 0.0 0.0 0.00 0.00 0.00 13 1020.6
20260901154703 88 84 0.0 0.0 0.00 0.00 0.00 13 1020.6
20260901153656 87 84 0.0 0.0 0.00 0.00 0.00 13 1020.6
20260901153156 87 84 0.0 0.0 0.00 0.00 0.00 13 1020.6
20260901152152 87 84 0.0 0.0 0.00 0.00 0.00 15 1020.6
20260901151648 86 84 0.0 0.0 0.00 0.00 0.00 16 1020.6
20260901150644 85 84 0.0 0.0 0.00 0.00 0.00 13 1020.6
20260901150144 85 84 0.0 0.0 0.00 0.00 0.00 16 1020.6
20260901145644 85 84 0.0 0.0 0.00 0.00 0.00 16 1020.6
20260901144641 84 84 0.0 0.0 0.00 0.00 0.00 18 1020.6
20260901144141 83 84 0.0 0.0 0.00 0.00 0.00 19 1020.6
20260901143139 82 84 0.0 0.0 0.00 0.00 0.00 20 1020.6
20260901142204 81 84 0.0 0.0 0.00 0.00 0.00 22 1020.6
20260901142130 81 84 0.0 0.0 0.00 0.00 0.00 22 1020.6
20260901140618 80 84 0.0 0.0 0.00 0.00 0.00 29 1020.6
20260901140115 80 84 0.0 0.0 0.00 0.00 0.00 29 1020.6
20260901135616 79 84 0.0 0.0 0.00 0.00 0.00 30 1020.6
20260901135112 79 84 0.0 0.0 0.00 0.00 0.00 30 1020.6
20260901134114 78 84 0.0 0.0 0.00 0.00 0.00 30 1020.6
20260901133604 77 84 0.0 0.0 0.00 0.00 0.00 31 1020.6
20260901133104 77 84 0.0 0.0 0.00 0.00 0.00 31 1020.6
20260901132603 77 84 0.0 0.0 0.00 0.00 0.00 31 1020.6
20260901132058 76 84 0.0 0.0 0.00 0.00 0.00 32 1020.6
20260901131558 76 84 0.0 0.0 0.00 0.00 0.00 32 1020.6
20260901131058 76 84 0.0 0.0 0.00 0.00 0.00 32 1020.6
20260901130553 75 84 0.0 0.0 0.00 0.00 0.00 32 1020.6
20260901125554 74 84 0.0 0.0 0.00 0.00 0.00 33 1020.6
20260901125050 74 84 0.0 0.0 0.00 0.00 0.00 33 1020.6
20260901124551 73 84 0.0 0.0 0.00 0.00 0.00 33 1020.6
20260901123043 72 84 0.0 0.0 0.00 0.00 0.00 33 1020.6
20260901122543 72 84 0.0 0.0 0.00 0.00 0.00 33 1020.6
20260901122035 71 84 0.0 0.0 0.00 0.00 0.00 33 1020.6
20260901121534 71 84 0.0 0.0 0.00 0.00 0.00 33 1020.6
20260901120520 71 84 0.0 0.0 0.00 0.00 0.00 33 1020.6
20260901120021 70 84 0.0 0.0 0.00 0.00 0.00 34 1020.6
20260901115521 70 84 0.0 0.0 0.00 0.00 0.00 33 1019.6
20260901115016 70 84 0.0 0.0 0.00 0.00 0.00 33 1019.6
20260901114517 70 84 0.0 0.0 0.00 0.00 0.00 33 1019.6
20260901114017 70 84 0.0 0.0 0.00 0.00 0.00 33 1019.6
20260901113507 70 84 0.0 0.0 0.00 0.00 0.00 33 1019.6
20260901113007 70 84 0.0 0.0 0.00 0.00 0.00 33 1019.6
20260901111956 70 84 0.0 0.0 0.00 0.00 0.00 33 1019.6
20260901111456 70 84 0.0 0.0 0.00 0.00 0.00 33 1019.6
20260901110445 70 84 0.0 0.0 0.00 0.00 0.00 33 1019.6
20260901104935 70 84 0.0 0.0 0.00 0.00 0.00 33 1019.6
20260901104435 70 84 0.0 0.0 0.00 0.00 0.00 33 1019.6
20260901103935 70 84 0.0 0.0 0.00 0.00 0.00 33 1019.6
20260901103431 70 84 0.0 0.0 0.00 0.00 0.00 33 1019.6
20260901102931 70 84 0.0 0.0 0.00 0.00 0.00 33 1019.6
20260901101928 70 84 0.0 0.0 0.00 0.00 0.00 33 1019.6
20260901101427 70 84 0.0 0.0 0.00 0.00 0.00 33 1019.6
20260901100927 70 84 0.0 0.0 0.00 0.00 0.00 33 1019.6
20260901095923 70 84 0.0 0.0 0.00 0.00 0.00 33 1019.6
20260901095423 70 84 0.0 0.0 0.00 0.00 0.00 33 1019.6
20260901094919 71 84 0.0 0.0 0.00 0.00 0.00 33 1019.6
20260901094419 71 84 0.0 0.0 0.00 0.00 0.00 33 1019.6
20260901093919 71 84 0.0 0.0 0.00 0.00 0.00 32 1019.6
20260901092915 71 84 0.0 0.0 0.00 0.00 0.00 32 1019.6
20260901092451 71 84 0.0 0.0 0.00 0.00 0.00 32 1019.6
20260901092415 71 84 0.0 0.0 0.00 0.00 0.00 32 1019.6
20260901091912 71 84 0.0 0.0 0.00 0.00 0.00 32 1019.6
20260901091412 71 84 0.0 0.0 0.00 0.00 0.00 32 1019.6
20260901090912 71 83 0.0 0.0 0.00 0.00 0.00 32 1018.6
20260901090404 71 84 0.0 0.0 0.00 0.00 0.00 32 1018.6
20260901084358 71 84 0.0 0.0 0.00 0.00 0.00 32 1018.6
20260901083858 71 84 0.0 0.0 0.00 0.00 0.00 32 1018.6
20260901082851 71 84 0.0 0.0 0.00 0.00 0.00 32 1018.6
20260901082351 71 84 0.0 0.0 0.00 0.00 0.00 32 1018.6
20260901081844 71 84 0.0 0.0 0.00 0.00 0.00 32 1018.6
20260901081344 71 84 0.0 0.0 0.00 0.00 0.00 32 1018.6
20260901080844 71 84 0.0 0.0 0.00 0.00 0.00 32 1018.6
20260901075331 71 84 0.0 0.0 0.00 0.00 0.00 32 1018.6
20260901074826 72 84 0.0 0.0 0.00 0.00 0.00 32 1018.6
20260901074327 72 84 0.0 0.0 0.00 0.00 0.00 32 1018.6
20260901073817 72 84 0.0 0.0 0.00 0.00 0.00 32 1018.6
20260901072806 72 84 0.0 0.0 0.00 0.00 0.00 32 1018.6
20260901071300 72 84 0.0 0.0 0.00 0.00 0.00 32 1018.6
20260901070800 72 84 0.0 0.0 0.00 0.00 0.00 32 1018.6
20260901070250 72 84 0.0 0.0 0.00 0.00 0.00 31 1018.6
20260901065751 72 84 0.0 0.0 0.00 0.00 0.00 31 1018.6
20260901065251 72 84 0.0 0.0 0.00 0.00 0.00 31 1018.6
20260901064246 72 84 0.0 0.0 0.00 0.00 0.00 31 1018.6
20260901063241 72 84 0.0 0.0 0.00 0.00 0.00 31 1018.6
20260901062741 73 84 0.0 0.0 0.00 0.00 0.00 31 1018.6
20260901062242 73 84 0.0 0.0 0.00 0.00 0.00 31 1018.6
20260901061239 73 84 0.0 0.0 0.00 0.00 0.00 31 1018.6
20260901060740 73 84 0.0 0.0 0.00 0.00 0.00 31 1018.6
20260901060235 73 84 0.0 0.0 0.00 0.00 0.00 30 1018.6
20260901055735 73 84 0.0 0.0 0.00 0.00 0.00 30 1018.6
20260901055236 73 84 0.0 0.0 0.00 0.00 0.00 30 1019.6
20260901054731 73 84 0.0 0.0 0.00 0.00 0.00 30 1019.6
20260901054231 73 84 0.0 0.0 0.00 0.00 0.00 30 1019.6
20260901053731 73 84 0.0 0.0 0.00 0.00 0.00 30 1019.6
20260901052729 73 84 0.0 0.0 0.00 0.00 0.00 30 1019.6
20260901052229 73 83 0.0 0.0 0.00 0.00 0.00 29 1019.6
20260901051724 73 84 0.0 0.0 0.00 0.00 0.00 29 1019.6
20260901051224 74 84 0.0 0.0 0.00 0.00 0.00 29 1019.6
20260901050725 74 84 0.0 0.0 0.00 0.00 0.00 29 1018.6
20260901050220 74 84 0.0 0.0 0.00 0.00 0.00 28 1018.6
20260901045221 74 84 0.0 0.0 0.00 0.00 0.00 28 1018.6
20260901043711 74 83 0.0 0.0 0.00 0.00 0.00 28 1018.6
20260901042209 74 84 0.0 0.0 0.00 0.00 0.00 27 1018.6
20260901040707 75 84 0.0 0.0 0.00 0.00 0.00 27 1018.6
20260901040204 75 84 0.0 0.0 0.00 0.00 0.00 27 1018.6
20260901035704 75 84 0.0 0.0 0.00 0.00 0.00 26 1018.6
20260901033655 75 84 0.0 0.0 0.00 0.00 0.00 26 1019.6
20260901032152 75 84 0.0 0.0 0.00 0.00 0.00 25 1019.6
20260901031647 76 84 0.0 0.0 0.00 0.00 0.00 25 1019.6
20260901030648 76 84 0.0 0.0 0.00 0.00 0.00 25 1019.6
20260901025645 76 84 0.0 0.0 0.00 0.00 0.00 24 1019.6
20260901024640 76 84 0.0 0.0 0.00 0.00 0.00 24 1019.6
20260901023641 76 84 0.0 0.0 0.00 0.00 0.00 23 1018.6
20260901023138 77 84 0.0 0.0 0.00 0.00 0.00 23 1018.6
20260901021136 77 84 0.0 0.0 0.00 0.00 0.00 22 1018.6
20260901020636 77 84 0.0 0.0 0.00 0.00 0.00 22 1018.6
20260901015634 78 84 0.0 0.0 0.00 0.00 0.00 22 1018.6
20260901015134 78 84 0.0 0.0 0.00 0.00 0.00 21 1018.6
20260901014626 78 84 0.0 0.0 0.00 0.00 0.00 21 1018.6
20260901014126 78 84 0.0 0.0 0.00 0.00 0.00 21 1018.6
20260901012622 78 84 0.0 0.0 0.00 0.00 0.00 21 1018.6
20260901011616 79 84 0.0 0.0 0.00 0.00 0.00 20 1018.6
20260901010614 79 84 0.0 0.0 0.00 0.00 0.00 20 1018.6
20260901010107 79 84 0.0 0.0 0.00 0.00 0.00 19 1018.6
20260901005606 80 84 0.0 0.0 0.00 0.00 0.00 19 1018.6
20260901005104 80 84 0.0 0.0 0.00 0.00 0.00 19 1018.6
20260901004600 80 84 0.0 0.0 0.00 0.00 0.00 17 1018.6
20260901004100 81 84 0.0 0.0 0.00 0.00 0.00 17 1018.6
20260901003559 81 84 0.0 0.0 0.00 0.00 0.00 17 1017.6
20260901003054 81 84 0.0 0.0 0.00 0.00 0.00 17 1017.6
20260901002055 82 84 0.0 0.0 0.00 0.00 0.00 16 1017.6
20260901001049 82 84 0.0 0.0 0.00 0.00 0.00 14 1017.6
20260831235046 84 84 0.0 0.0 0.00 0.00 0.00 13 1017.6
20260831234538 84 84 0.0 0.0 0.00 0.00 0.00 13 1017.6
20260831234038 85 84 0.0 0.0 0.00 0.00 0.00 13 1018.6
20260831233536 85 84 0.0 0.0 0.00 0.00 0.00 13 1018.6
20260831233032 85 84 0.0 0.0 0.00 0.00 0.00 13 1018.6
20260831232532 86 84 0.0 0.0 0.00 0.00 0.00 13 1017.6
20260831232032 86 84 0.0 0.0 0.00 0.00 0.00 13 1017.6
20260831230529 87 84 0.0 0.0 0.00 0.00 0.00 13 1018.6
20260831230022 88 84 0.0 0.0 0.00 0.00 0.00 13 1018.6
20260831225523 89 84 0.0 0.0 0.00 0.00 0.00 12 1018.6
20260831224516 90 84 0.0 0.0 0.00 0.00 0.00 12 1018.6
20260831223517 91 84 0.0 0.0 0.00 0.00 0.00 12 1018.6
20260831223012 92 83 0.0 0.0 0.00 0.00 0.00 12 1018.6
20260831222013 93 84 0.0 0.0 0.00 0.00 0.00 11 1018.6
20260831221509 94 86 0.0 0.0 0.00 0.00 0.00 11 1018.6
20260831221008 94 108 0.0 0.0 0.00 0.00 0.00 11 1018.6
20260831220508 92 108 0.0 0.0 0.00 0.00 0.00 11 1018.6
20260831214455 93 85 0.0 0.0 0.00 0.00 0.00 11 1018.6
20260831213954 93 85 0.0 0.0 0.00 0.00 0.00 11 1018.6
20260831213454 92 85 0.0 0.0 0.00 0.00 0.00 11 1018.6
20260831213024 93 84 0.0 0.0 0.00 0.00 0.00 11 1018.6
20260831212948 93 84 0.0 0.0 0.00 0.00 0.00 11 1018.6
20260831212448 93 108 0.0 0.0 0.00 0.00 0.00 11 1018.6
20260831211948 93 113 0.0 0.0 0.00 0.00 0.00 11 1018.6
20260831211444 93 167 0.0 0.0 0.00 0.00 0.00 11 1018.6
20260831210443 93 98 0.0 0.0 0.00 0.00 0.00 11 1018.6
20260831205937 94 98 0.0 0.0 0.00 0.00 0.00 11 1018.6
20260831204430 94 167 0.0 0.0 0.00 0.00 0.00 11 1018.6
20260831203430 94 174 0.0 0.0 0.00 0.00 0.00 11 1018.6
20260831202427 94 87 0.0 0.0 0.00 0.00 0.00 11 1019.6
20260831201928 95 108 0.0 0.0 0.00 0.00 0.00 11 1019.6
20260831201423 95 124 0.0 0.0 0.00 0.00 0.00 11 1019.6
20260831200921 95 121 0.0 0.0 0.00 0.00 0.00 11 1019.6
20260831195914 95 125 0.0 0.0 0.00 0.00 0.00 11 1019.6
20260831194912 95 75 0.0 0.0 0.00 0.00 0.00 11 1019.6
20260831194403 96 90 0.0 0.0 0.00 0.00 0.00 11 1019.6
20260831193902 96 112 0.0 0.0 0.00 0.00 0.00 11 1019.6
20260831192357 95 14 0.0 0.0 0.00 0.00 0.00 11 1019.6
20260831191857 95 79 0.0 0.0 0.00 0.00 0.00 11 1019.6
20260831191353 95 94 0.0 0.0 0.00 0.00 0.00 11 1019.6
20260831190853 95 64 0.0 0.0 0.00 0.00 0.00 11 1019.6
20260831190353 95 109 0.0 0.0 0.00 0.00 0.00 11 1019.6
20260831185849 94 108 0.0 0.0 0.00 0.00 0.00 11 1019.6
20260831185349 94 53 0.0 0.0 0.00 0.00 0.00 11 1020.6
20260831184345 94 11 0.0 0.0 0.00 0.00 0.00 11 1020.6
20260831183346 93 112 0.0 0.0 0.00 0.00 0.00 11 1020.6
20260831182841 92 123 0.0 0.0 0.00 0.00 0.00 11 1020.6
20260831182342 91 110 0.0 0.0 0.00 0.00 0.00 12 1020.6
20260831181842 91 110 0.0 0.0 0.00 0.00 0.00 12 1020.6
20260831180840 93 343 0.0 0.0 0.00 0.00 0.00 11 1020.6
20260831180340 93 29 0.0 0.0 0.00 0.00 0.00 11 1020.6
20260831174832 92 24 0.0 0.0 0.00 0.00 0.00 11 1020.6
20260831174323 92 66 0.0 0.0 0.00 0.00 0.00 11 1020.6
20260831173823 92 144 0.0 0.0 0.00 0.00 0.00 12 1020.6
20260831172819 93 113 0.0 0.0 0.00 0.00 0.00 11 1020.6